Year,Month,Day,Hour,Minute,Value (Times are PST for temperature in C)
2021,06,08,00,00,8.10
2021,06,08,00,01,8.10
2021,06,08,00,02,8.00
2021,06,08,00,03,8.00
2021,06,08,00,04,8.00
2021,06,08,00,05,8.00
2021,06,08,00,06,7.90
2021,06,08,00,07,7.90
2021,06,08,00,08,7.90
2021,06,08,00,09,7.90
2021,06,08,00,10,7.90
2021,06,08,00,11,7.90
2021,06,08,00,12,7.80
2021,06,08,00,13,7.80
2021,06,08,00,14,7.80
2021,06,08,00,15,7.80
2021,06,08,00,16,7.70
2021,06,08,00,17,7.70
2021,06,08,00,18,7.70
2021,06,08,00,19,7.70
2021,06,08,00,20,7.60
2021,06,08,00,21,7.60
2021,06,08,00,22,7.60
2021,06,08,00,23,7.60
2021,06,08,00,24,7.50
2021,06,08,00,25,7.50
2021,06,08,00,26,7.50
2021,06,08,00,27,7.40
2021,06,08,00,28,7.40
2021,06,08,00,29,7.40
2021,06,08,00,30,7.40
2021,06,08,00,31,7.30
2021,06,08,00,32,7.30
2021,06,08,00,33,7.30
2021,06,08,00,34,7.30
2021,06,08,00,35,7.30
2021,06,08,00,36,7.30
2021,06,08,00,37,7.30
2021,06,08,00,38,7.30
2021,06,08,00,39,7.30
2021,06,08,00,40,7.30
2021,06,08,00,41,7.20
2021,06,08,00,42,7.20
2021,06,08,00,43,7.20
2021,06,08,00,44,7.20
2021,06,08,00,45,7.20
2021,06,08,00,46,7.20
2021,06,08,00,47,7.20
2021,06,08,00,48,7.20
2021,06,08,00,49,7.10
2021,06,08,00,50,7.10
2021,06,08,00,51,7.10
2021,06,08,00,52,7.10
2021,06,08,00,53,7.10
2021,06,08,00,54,7.00
2021,06,08,00,55,7.00
2021,06,08,00,56,7.00
2021,06,08,00,57,7.00
2021,06,08,00,58,7.00
2021,06,08,00,59,7.00
2021,06,08,01,00,7.00
2021,06,08,01,01,7.00
2021,06,08,01,02,7.00
2021,06,08,01,03,7.00
2021,06,08,01,04,7.00
2021,06,08,01,05,7.00
2021,06,08,01,06,6.90
2021,06,08,01,07,6.90
2021,06,08,01,08,6.90
2021,06,08,01,09,6.90
2021,06,08,01,10,6.90
2021,06,08,01,11,6.90
2021,06,08,01,12,6.80
2021,06,08,01,13,6.80
2021,06,08,01,14,6.80
2021,06,08,01,15,6.80
2021,06,08,01,16,6.80
2021,06,08,01,17,6.80
2021,06,08,01,18,6.80
2021,06,08,01,19,6.80
2021,06,08,01,20,6.80
2021,06,08,01,21,6.80
2021,06,08,01,22,6.80
2021,06,08,01,23,6.80
2021,06,08,01,24,6.80
2021,06,08,01,25,6.80
2021,06,08,01,26,6.80
2021,06,08,01,27,6.80
2021,06,08,01,28,6.80
2021,06,08,01,29,6.80
2021,06,08,01,30,6.80
2021,06,08,01,31,6.80
2021,06,08,01,32,6.80
2021,06,08,01,33,6.80
2021,06,08,01,34,6.80
2021,06,08,01,35,6.70
2021,06,08,01,36,6.70
2021,06,08,01,37,6.70
2021,06,08,01,38,6.70
2021,06,08,01,39,6.70
2021,06,08,01,40,6.70
2021,06,08,01,41,6.70
2021,06,08,01,42,6.60
2021,06,08,01,43,6.60
2021,06,08,01,44,6.60
2021,06,08,01,45,6.60
2021,06,08,01,46,6.60
2021,06,08,01,47,6.60
2021,06,08,01,48,6.60
2021,06,08,01,49,6.60
2021,06,08,01,50,6.60
2021,06,08,01,51,6.60
2021,06,08,01,52,6.50
2021,06,08,01,53,6.50
2021,06,08,01,54,6.50
2021,06,08,01,55,6.50
2021,06,08,01,56,6.50
2021,06,08,01,57,6.40
2021,06,08,01,58,6.40
2021,06,08,01,59,6.40
2021,06,08,02,00,6.40
2021,06,08,02,01,6.50
2021,06,08,02,02,6.50
2021,06,08,02,03,6.40
2021,06,08,02,04,6.40
2021,06,08,02,05,6.40
2021,06,08,02,06,6.40
2021,06,08,02,07,6.40
2021,06,08,02,08,6.40
2021,06,08,02,09,6.40
2021,06,08,02,10,6.40
2021,06,08,02,11,6.40
2021,06,08,02,12,6.40
2021,06,08,02,13,6.40
2021,06,08,02,14,6.30
2021,06,08,02,15,6.30
2021,06,08,02,16,6.30
2021,06,08,02,17,6.30
2021,06,08,02,18,6.30
2021,06,08,02,19,6.20
2021,06,08,02,20,6.20
2021,06,08,02,21,6.20
2021,06,08,02,22,6.20
2021,06,08,02,23,6.20
2021,06,08,02,24,6.20
2021,06,08,02,25,6.20
2021,06,08,02,26,6.20
2021,06,08,02,27,6.20
2021,06,08,02,28,6.10
2021,06,08,02,29,6.10
2021,06,08,02,30,6.10
2021,06,08,02,31,6.10
2021,06,08,02,32,6.10
2021,06,08,02,33,6.00
2021,06,08,02,34,6.00
2021,06,08,02,35,6.00
2021,06,08,02,36,5.90
2021,06,08,02,37,5.90
2021,06,08,02,38,5.90
2021,06,08,02,39,5.90
2021,06,08,02,40,5.90
2021,06,08,02,41,5.90
2021,06,08,02,42,5.80
2021,06,08,02,43,5.90
2021,06,08,02,44,5.90
2021,06,08,02,45,5.90
2021,06,08,02,46,5.90
2021,06,08,02,47,5.90
2021,06,08,02,48,5.90
2021,06,08,02,49,5.90
2021,06,08,02,50,5.90
2021,06,08,02,51,5.90
2021,06,08,02,52,5.90
2021,06,08,02,53,5.80
2021,06,08,02,54,5.80
2021,06,08,02,55,5.80
2021,06,08,02,56,5.80
2021,06,08,02,57,5.80
2021,06,08,02,58,5.80
2021,06,08,02,59,5.80
2021,06,08,03,00,5.80
2021,06,08,03,01,5.70
2021,06,08,03,02,5.70
2021,06,08,03,03,5.70
2021,06,08,03,04,5.70
2021,06,08,03,05,5.70
2021,06,08,03,06,5.70
2021,06,08,03,07,5.70
2021,06,08,03,08,5.70
2021,06,08,03,09,5.70
2021,06,08,03,10,5.70
2021,06,08,03,11,5.70
2021,06,08,03,12,5.70
2021,06,08,03,13,5.70
2021,06,08,03,14,5.70
2021,06,08,03,15,5.70
2021,06,08,03,16,5.70
2021,06,08,03,17,5.70
2021,06,08,03,18,5.70
2021,06,08,03,19,5.70
2021,06,08,03,20,5.70
2021,06,08,03,21,5.70
2021,06,08,03,22,5.70
2021,06,08,03,23,5.70
2021,06,08,03,24,5.70
2021,06,08,03,25,5.70
2021,06,08,03,26,5.60
2021,06,08,03,27,5.60
2021,06,08,03,28,5.60
2021,06,08,03,29,5.60
2021,06,08,03,30,5.60
2021,06,08,03,31,5.60
2021,06,08,03,32,5.60
2021,06,08,03,33,5.60
2021,06,08,03,34,5.60
2021,06,08,03,35,5.60
2021,06,08,03,36,5.60
2021,06,08,03,37,5.60
2021,06,08,03,38,5.60
2021,06,08,03,39,5.60
2021,06,08,03,40,5.60
2021,06,08,03,41,5.60
2021,06,08,03,42,5.60
2021,06,08,03,43,5.60
2021,06,08,03,44,5.60
2021,06,08,03,45,5.50
2021,06,08,03,46,5.50
2021,06,08,03,47,5.50
2021,06,08,03,48,5.50
2021,06,08,03,49,5.40
2021,06,08,03,50,5.40
2021,06,08,03,51,5.40
2021,06,08,03,52,5.40
2021,06,08,03,53,5.40
2021,06,08,03,54,5.40
2021,06,08,03,55,5.40
2021,06,08,03,56,5.40
2021,06,08,03,57,5.40
2021,06,08,03,58,5.40
2021,06,08,03,59,5.40
2021,06,08,04,00,5.30
2021,06,08,04,01,5.30
2021,06,08,04,02,5.30
2021,06,08,04,03,5.30
2021,06,08,04,04,5.30
2021,06,08,04,05,5.30
2021,06,08,04,06,5.30
2021,06,08,04,07,5.30
2021,06,08,04,08,5.30
2021,06,08,04,09,5.30
2021,06,08,04,10,5.30
2021,06,08,04,11,5.30
2021,06,08,04,12,5.30
2021,06,08,04,13,5.30
2021,06,08,04,14,5.30
2021,06,08,04,15,5.30
2021,06,08,04,16,5.30
2021,06,08,04,17,5.30
2021,06,08,04,18,5.30
2021,06,08,04,19,5.20
2021,06,08,04,20,5.20
2021,06,08,04,21,5.20
2021,06,08,04,22,5.20
2021,06,08,04,23,5.20
2021,06,08,04,24,5.20
2021,06,08,04,25,5.20
2021,06,08,04,26,5.20
2021,06,08,04,27,5.20
2021,06,08,04,28,5.20
2021,06,08,04,29,5.10
2021,06,08,04,30,5.20
2021,06,08,04,31,5.10
2021,06,08,04,32,5.10
2021,06,08,04,33,5.10
2021,06,08,04,34,5.20
2021,06,08,04,35,5.20
2021,06,08,04,36,5.20
2021,06,08,04,37,5.20
2021,06,08,04,38,5.20
2021,06,08,04,39,5.20
2021,06,08,04,40,5.10
2021,06,08,04,41,5.20
2021,06,08,04,42,5.20
2021,06,08,04,43,5.10
2021,06,08,04,44,5.10
2021,06,08,04,45,5.10
2021,06,08,04,46,5.10
2021,06,08,04,47,5.10
2021,06,08,04,48,5.10
2021,06,08,04,49,5.10
2021,06,08,04,50,5.10
2021,06,08,04,51,5.10
2021,06,08,04,52,5.10
2021,06,08,04,53,5.10
2021,06,08,04,54,5.00
2021,06,08,04,55,5.00
2021,06,08,04,56,5.00
2021,06,08,04,57,5.00
2021,06,08,04,58,5.00
2021,06,08,04,59,5.00
2021,06,08,05,00,5.00
2021,06,08,05,01,5.00
2021,06,08,05,02,4.90
2021,06,08,05,03,4.90
2021,06,08,05,04,4.90
2021,06,08,05,05,4.90
2021,06,08,05,06,4.90
2021,06,08,05,07,4.90
2021,06,08,05,08,4.90
2021,06,08,05,09,4.90
2021,06,08,05,10,4.90
2021,06,08,05,11,4.90
2021,06,08,05,12,4.90
2021,06,08,05,13,4.90
2021,06,08,05,14,4.80
2021,06,08,05,15,4.80
2021,06,08,05,16,4.80
2021,06,08,05,17,4.80
2021,06,08,05,18,4.80
2021,06,08,05,19,4.80
2021,06,08,05,20,4.70
2021,06,08,05,21,4.70
2021,06,08,05,22,4.70
2021,06,08,05,23,4.70
2021,06,08,05,24,4.70
2021,06,08,05,25,4.70
2021,06,08,05,26,4.70
2021,06,08,05,27,4.70
2021,06,08,05,28,4.70
2021,06,08,05,29,4.70
2021,06,08,05,30,4.80
2021,06,08,05,31,4.80
2021,06,08,05,32,4.80
2021,06,08,05,33,4.70
2021,06,08,05,34,4.70
2021,06,08,05,35,4.70
2021,06,08,05,36,4.70
2021,06,08,05,37,4.70
2021,06,08,05,38,4.70
2021,06,08,05,39,4.70
2021,06,08,05,40,4.70
2021,06,08,05,41,4.80
2021,06,08,05,42,4.70
2021,06,08,05,43,4.70
2021,06,08,05,44,4.80
2021,06,08,05,45,4.80
2021,06,08,05,46,4.80
2021,06,08,05,47,4.80
2021,06,08,05,48,4.80
2021,06,08,05,49,4.80
2021,06,08,05,50,4.80
2021,06,08,05,51,4.80
2021,06,08,05,52,4.80
2021,06,08,05,53,4.80
2021,06,08,05,54,4.80
2021,06,08,05,55,4.80
2021,06,08,05,56,4.90
2021,06,08,05,57,4.90
2021,06,08,05,58,4.90
2021,06,08,05,59,5.00
2021,06,08,06,00,5.00
2021,06,08,06,01,5.10
2021,06,08,06,02,5.10
2021,06,08,06,03,5.10
2021,06,08,06,04,5.10
2021,06,08,06,05,5.10
2021,06,08,06,06,5.10
2021,06,08,06,07,5.10
2021,06,08,06,08,5.20
2021,06,08,06,09,5.20
2021,06,08,06,10,5.20
2021,06,08,06,11,5.20
2021,06,08,06,12,5.30
2021,06,08,06,13,5.30
2021,06,08,06,14,5.40
2021,06,08,06,15,5.40
2021,06,08,06,16,5.50
2021,06,08,06,17,5.50
2021,06,08,06,18,5.60
2021,06,08,06,19,5.60
2021,06,08,06,20,5.60
2021,06,08,06,21,5.70
2021,06,08,06,22,5.70
2021,06,08,06,23,5.80
2021,06,08,06,24,5.80
2021,06,08,06,25,5.80
2021,06,08,06,26,5.80
2021,06,08,06,27,5.90
2021,06,08,06,28,5.90
2021,06,08,06,29,5.90
2021,06,08,06,30,5.90
2021,06,08,06,31,5.90
2021,06,08,06,32,5.90
2021,06,08,06,33,5.90
2021,06,08,06,34,6.00
2021,06,08,06,35,6.00
2021,06,08,06,36,6.00
2021,06,08,06,37,6.10
2021,06,08,06,38,6.10
2021,06,08,06,39,6.10
2021,06,08,06,40,6.10
2021,06,08,06,41,6.10
2021,06,08,06,42,6.10
2021,06,08,06,43,6.20
2021,06,08,06,44,6.20
2021,06,08,06,45,6.20
2021,06,08,06,46,6.30
2021,06,08,06,47,6.30
2021,06,08,06,48,6.30
2021,06,08,06,49,6.40
2021,06,08,06,50,6.50
2021,06,08,06,51,6.50
2021,06,08,06,52,6.60
2021,06,08,06,53,6.60
2021,06,08,06,54,6.60
2021,06,08,06,55,6.70
2021,06,08,06,56,6.70
2021,06,08,06,57,6.70
2021,06,08,06,58,6.80
2021,06,08,06,59,6.80
2021,06,08,07,00,6.80
2021,06,08,07,01,6.80
2021,06,08,07,02,6.90
2021,06,08,07,03,6.90
2021,06,08,07,04,7.00
2021,06,08,07,05,7.00
2021,06,08,07,06,7.10
2021,06,08,07,07,7.20
2021,06,08,07,08,7.30
2021,06,08,07,09,7.30
2021,06,08,07,10,7.40
2021,06,08,07,11,7.50
2021,06,08,07,12,7.50
2021,06,08,07,13,7.60
2021,06,08,07,14,7.60
2021,06,08,07,15,7.60
2021,06,08,07,16,7.70
2021,06,08,07,17,7.70
2021,06,08,07,18,7.70
2021,06,08,07,19,7.80
2021,06,08,07,20,7.80
2021,06,08,07,21,7.90
2021,06,08,07,22,7.90
2021,06,08,07,23,8.00
2021,06,08,07,24,8.10
2021,06,08,07,25,8.10
2021,06,08,07,26,8.10
2021,06,08,07,27,8.20
2021,06,08,07,28,8.20
2021,06,08,07,29,8.30
2021,06,08,07,30,8.30
2021,06,08,07,31,8.30
2021,06,08,07,32,8.40
2021,06,08,07,33,8.40
2021,06,08,07,34,8.50
2021,06,08,07,35,8.50
2021,06,08,07,36,8.60
2021,06,08,07,37,8.70
2021,06,08,07,38,8.70
2021,06,08,07,39,8.80
2021,06,08,07,40,8.90
2021,06,08,07,41,9.00
2021,06,08,07,42,9.00
2021,06,08,07,43,9.10
2021,06,08,07,44,9.10
2021,06,08,07,45,9.10
2021,06,08,07,46,9.20
2021,06,08,07,47,9.20
2021,06,08,07,48,9.30
2021,06,08,07,49,9.30
2021,06,08,07,50,9.30
2021,06,08,07,51,9.30
2021,06,08,07,52,9.30
2021,06,08,07,53,9.30
2021,06,08,07,54,9.30
2021,06,08,07,55,9.30
2021,06,08,07,56,9.30
2021,06,08,07,57,9.30
2021,06,08,07,58,9.40
2021,06,08,07,59,9.40
2021,06,08,08,00,9.40
2021,06,08,08,01,9.50
2021,06,08,08,02,9.50
2021,06,08,08,03,9.60
2021,06,08,08,04,9.60
2021,06,08,08,05,9.70
2021,06,08,08,06,9.80
2021,06,08,08,07,9.90
2021,06,08,08,08,10.00
2021,06,08,08,09,10.10
2021,06,08,08,10,10.30
2021,06,08,08,11,10.50
2021,06,08,08,12,10.70
2021,06,08,08,13,10.80
2021,06,08,08,14,10.90
2021,06,08,08,15,11.10
2021,06,08,08,16,11.20
2021,06,08,08,17,11.40
2021,06,08,08,18,11.50
2021,06,08,08,19,11.60
2021,06,08,08,20,11.70
2021,06,08,08,21,11.80
2021,06,08,08,22,11.90
2021,06,08,08,23,12.10
2021,06,08,08,24,12.20
2021,06,08,08,25,12.30
2021,06,08,08,26,12.40
2021,06,08,08,27,12.50
2021,06,08,08,28,12.60
2021,06,08,08,29,12.70
2021,06,08,08,30,12.70
2021,06,08,08,31,12.70
2021,06,08,08,32,12.70
2021,06,08,08,33,12.70
2021,06,08,08,34,12.80
2021,06,08,08,35,12.90
2021,06,08,08,36,13.00
2021,06,08,08,37,13.10
2021,06,08,08,38,13.20
2021,06,08,08,39,13.20
2021,06,08,08,40,13.30
2021,06,08,08,41,13.40
2021,06,08,08,42,13.40
2021,06,08,08,43,13.50
2021,06,08,08,44,13.60
2021,06,08,08,45,13.70
2021,06,08,08,46,13.80
2021,06,08,08,47,13.80
2021,06,08,08,48,13.80
2021,06,08,08,49,13.90
2021,06,08,08,50,14.00
2021,06,08,08,51,14.00
2021,06,08,08,52,14.10
2021,06,08,08,53,14.10
2021,06,08,08,54,14.20
2021,06,08,08,55,14.30
2021,06,08,08,56,14.40
2021,06,08,08,57,14.40
2021,06,08,08,58,14.50
2021,06,08,08,59,14.60
2021,06,08,09,00,14.60
2021,06,08,09,01,14.60
2021,06,08,09,02,14.60
2021,06,08,09,03,14.50
2021,06,08,09,04,14.50
2021,06,08,09,05,14.40
2021,06,08,09,06,14.30
2021,06,08,09,07,14.20
2021,06,08,09,08,14.10
2021,06,08,09,09,14.00
2021,06,08,09,10,14.00
2021,06,08,09,11,14.00
2021,06,08,09,12,14.00
2021,06,08,09,13,14.00
2021,06,08,09,14,14.00
2021,06,08,09,15,13.90
2021,06,08,09,16,14.00
2021,06,08,09,17,14.00
2021,06,08,09,18,14.20
2021,06,08,09,19,14.30
2021,06,08,09,20,14.40
2021,06,08,09,21,14.40
2021,06,08,09,22,14.50
2021,06,08,09,23,14.50
2021,06,08,09,24,14.60
2021,06,08,09,25,14.50
2021,06,08,09,26,14.50
2021,06,08,09,27,14.40
2021,06,08,09,28,14.40
2021,06,08,09,29,14.40
2021,06,08,09,30,14.40
2021,06,08,09,31,14.40
2021,06,08,09,32,14.40
2021,06,08,09,33,14.60
2021,06,08,09,34,14.70
2021,06,08,09,35,14.70
2021,06,08,09,36,14.70
2021,06,08,09,37,14.80
2021,06,08,09,38,14.90
2021,06,08,09,39,15.00
2021,06,08,09,40,15.10
2021,06,08,09,41,15.10
2021,06,08,09,42,15.10
2021,06,08,09,43,15.00
2021,06,08,09,44,14.90
2021,06,08,09,45,14.90
2021,06,08,09,46,15.00
2021,06,08,09,47,15.00
2021,06,08,09,48,15.00
2021,06,08,09,49,14.90
2021,06,08,09,50,14.70
2021,06,08,09,51,14.70
2021,06,08,09,52,14.70
2021,06,08,09,53,14.80
2021,06,08,09,54,14.90
2021,06,08,09,55,15.00
2021,06,08,09,56,15.20
2021,06,08,09,57,15.30
2021,06,08,09,58,15.50
2021,06,08,09,59,15.50
2021,06,08,10,00,15.50
2021,06,08,10,01,15.50
2021,06,08,10,02,15.50
2021,06,08,10,03,15.50
2021,06,08,10,04,15.50
2021,06,08,10,05,15.60
2021,06,08,10,06,15.60
2021,06,08,10,07,15.60
2021,06,08,10,08,15.70
2021,06,08,10,09,15.80
2021,06,08,10,10,15.90
2021,06,08,10,11,16.00
2021,06,08,10,12,16.10
2021,06,08,10,13,16.10
2021,06,08,10,14,16.10
2021,06,08,10,15,16.20
2021,06,08,10,16,16.20
2021,06,08,10,17,16.20
2021,06,08,10,18,16.30
2021,06,08,10,19,16.30
2021,06,08,10,20,16.30
2021,06,08,10,21,16.10
2021,06,08,10,22,16.10
2021,06,08,10,23,16.10
2021,06,08,10,24,16.10
2021,06,08,10,25,16.20
2021,06,08,10,26,16.30
2021,06,08,10,27,16.50
2021,06,08,10,28,16.60
2021,06,08,10,29,16.60
2021,06,08,10,30,16.50
2021,06,08,10,31,16.50
2021,06,08,10,32,16.60
2021,06,08,10,33,16.60
2021,06,08,10,34,16.60
2021,06,08,10,35,16.70
2021,06,08,10,36,16.70
2021,06,08,10,37,16.90
2021,06,08,10,38,17.00
2021,06,08,10,39,17.00
2021,06,08,10,40,17.00
2021,06,08,10,41,16.90
2021,06,08,10,42,16.80
2021,06,08,10,43,16.70
2021,06,08,10,44,16.60
2021,06,08,10,45,16.60
2021,06,08,10,46,16.60
2021,06,08,10,47,16.60
2021,06,08,10,48,16.50
2021,06,08,10,49,16.50
2021,06,08,10,50,16.50
2021,06,08,10,51,16.50
2021,06,08,10,52,16.30
2021,06,08,10,53,16.30
2021,06,08,10,54,16.30
2021,06,08,10,55,16.30
2021,06,08,10,56,16.20
2021,06,08,10,57,16.20
2021,06,08,10,58,16.20
2021,06,08,10,59,16.20
2021,06,08,11,00,16.10
2021,06,08,11,01,16.20
2021,06,08,11,02,16.30
2021,06,08,11,03,16.30
2021,06,08,11,04,16.40
2021,06,08,11,05,16.50
2021,06,08,11,06,16.50
2021,06,08,11,07,16.60
2021,06,08,11,08,16.80
2021,06,08,11,09,16.90
2021,06,08,11,10,17.00
2021,06,08,11,11,17.10
2021,06,08,11,12,17.20
2021,06,08,11,13,17.30
2021,06,08,11,14,17.30
2021,06,08,11,15,17.40
2021,06,08,11,16,17.50
2021,06,08,11,17,17.50
2021,06,08,11,18,17.40
2021,06,08,11,19,17.20
2021,06,08,11,20,17.10
2021,06,08,11,21,16.90
2021,06,08,11,22,16.80
2021,06,08,11,23,16.80
2021,06,08,11,24,16.80
2021,06,08,11,25,16.80
2021,06,08,11,26,16.70
2021,06,08,11,27,16.60
2021,06,08,11,28,16.50
2021,06,08,11,29,16.30
2021,06,08,11,30,16.30
2021,06,08,11,31,16.30
2021,06,08,11,32,16.20
2021,06,08,11,33,16.10
2021,06,08,11,34,16.10
2021,06,08,11,35,16.10
2021,06,08,11,36,16.00
2021,06,08,11,37,15.90
2021,06,08,11,38,15.90
2021,06,08,11,39,15.90
2021,06,08,11,40,15.90
2021,06,08,11,41,15.80
2021,06,08,11,42,15.80
2021,06,08,11,43,15.70
2021,06,08,11,44,15.60
2021,06,08,11,45,15.70
2021,06,08,11,46,15.70
2021,06,08,11,47,15.80
2021,06,08,11,48,15.90
2021,06,08,11,49,16.00
2021,06,08,11,50,16.10
2021,06,08,11,51,16.20
2021,06,08,11,52,16.40
2021,06,08,11,53,16.50
2021,06,08,11,54,16.70
2021,06,08,11,55,16.90
2021,06,08,11,56,17.00
2021,06,08,11,57,17.20
2021,06,08,11,58,17.20
2021,06,08,11,59,17.20
2021,06,08,12,00,17.30
2021,06,08,12,01,17.40
2021,06,08,12,02,17.40
2021,06,08,12,03,17.40
2021,06,08,12,04,17.50
2021,06,08,12,05,17.60
2021,06,08,12,06,17.60
2021,06,08,12,07,17.60
2021,06,08,12,08,17.50
2021,06,08,12,09,17.30
2021,06,08,12,10,17.00
2021,06,08,12,11,16.80
2021,06,08,12,12,16.70
2021,06,08,12,13,16.60
2021,06,08,12,14,16.50
2021,06,08,12,15,16.40
2021,06,08,12,16,16.40
2021,06,08,12,17,16.30
2021,06,08,12,18,16.30
2021,06,08,12,19,16.30
2021,06,08,12,20,16.30
2021,06,08,12,21,16.30
2021,06,08,12,22,16.30
2021,06,08,12,23,16.30
2021,06,08,12,24,16.30
2021,06,08,12,25,16.30
2021,06,08,12,26,16.40
2021,06,08,12,27,16.50
2021,06,08,12,28,16.60
2021,06,08,12,29,16.70
2021,06,08,12,30,16.90
2021,06,08,12,31,17.10
2021,06,08,12,32,17.30
2021,06,08,12,33,17.50
2021,06,08,12,34,17.60
2021,06,08,12,35,17.70
2021,06,08,12,36,17.80
2021,06,08,12,37,17.90
2021,06,08,12,38,18.10
2021,06,08,12,39,18.10
2021,06,08,12,40,18.20
2021,06,08,12,41,18.10
2021,06,08,12,42,18.00
2021,06,08,12,43,18.00
2021,06,08,12,44,17.80
2021,06,08,12,45,17.60
2021,06,08,12,46,17.30
2021,06,08,12,47,17.10
2021,06,08,12,48,16.90
2021,06,08,12,49,16.80
2021,06,08,12,50,16.70
2021,06,08,12,51,16.60
2021,06,08,12,52,16.60
2021,06,08,12,53,16.60
2021,06,08,12,54,16.60
2021,06,08,12,55,16.60
2021,06,08,12,56,16.70
2021,06,08,12,57,16.70
2021,06,08,12,58,16.70
2021,06,08,12,59,16.70
2021,06,08,13,00,16.70
2021,06,08,13,01,16.70
2021,06,08,13,02,16.70
2021,06,08,13,03,16.60
2021,06,08,13,04,16.60
2021,06,08,13,05,16.70
2021,06,08,13,06,16.70
2021,06,08,13,07,16.70
2021,06,08,13,08,16.70
2021,06,08,13,09,16.70
2021,06,08,13,10,16.70
2021,06,08,13,11,16.70
2021,06,08,13,12,16.70
2021,06,08,13,13,16.70
2021,06,08,13,14,16.70
2021,06,08,13,15,16.70
2021,06,08,13,16,16.60
2021,06,08,13,17,16.50
2021,06,08,13,18,16.30
2021,06,08,13,19,16.30
2021,06,08,13,20,16.20
2021,06,08,13,21,16.20
2021,06,08,13,22,16.20
2021,06,08,13,23,16.20
2021,06,08,13,24,16.10
2021,06,08,13,25,16.00
2021,06,08,13,26,16.00
2021,06,08,13,27,15.90
2021,06,08,13,28,15.90
2021,06,08,13,29,15.70
2021,06,08,13,30,15.70
2021,06,08,13,31,15.60
2021,06,08,13,32,15.50
2021,06,08,13,33,15.30
2021,06,08,13,34,15.10
2021,06,08,13,35,15.10
2021,06,08,13,36,15.00
2021,06,08,13,37,14.90
2021,06,08,13,38,14.80
2021,06,08,13,39,14.70
2021,06,08,13,40,14.70
2021,06,08,13,41,14.60
2021,06,08,13,42,14.50
2021,06,08,13,43,14.30
2021,06,08,13,44,13.70
2021,06,08,13,45,13.10
2021,06,08,13,46,12.50
2021,06,08,13,47,12.10
2021,06,08,13,48,11.90
2021,06,08,13,49,11.70
2021,06,08,13,50,11.70
2021,06,08,13,51,11.60
2021,06,08,13,52,11.50
2021,06,08,13,53,11.40
2021,06,08,13,54,11.30
2021,06,08,13,55,11.20
2021,06,08,13,56,11.20
2021,06,08,13,57,11.20
2021,06,08,13,58,11.20
2021,06,08,13,59,11.20
2021,06,08,14,00,11.10
2021,06,08,14,01,11.10
2021,06,08,14,02,11.20
2021,06,08,14,03,11.30
2021,06,08,14,04,11.30
2021,06,08,14,05,11.40
2021,06,08,14,06,11.50
2021,06,08,14,07,11.60
2021,06,08,14,08,11.80
2021,06,08,14,09,11.90
2021,06,08,14,10,11.90
2021,06,08,14,11,11.90
2021,06,08,14,12,11.90
2021,06,08,14,13,11.90
2021,06,08,14,14,11.80
2021,06,08,14,15,11.80
2021,06,08,14,16,11.70
2021,06,08,14,17,11.70
2021,06,08,14,18,11.70
2021,06,08,14,19,11.80
2021,06,08,14,20,11.90
2021,06,08,14,21,12.00
2021,06,08,14,22,12.10
2021,06,08,14,23,12.10
2021,06,08,14,24,12.20
2021,06,08,14,25,12.20
2021,06,08,14,26,12.30
2021,06,08,14,27,12.30
2021,06,08,14,28,12.40
2021,06,08,14,29,12.40
2021,06,08,14,30,12.30
2021,06,08,14,31,12.30
2021,06,08,14,32,12.30
2021,06,08,14,33,12.30
2021,06,08,14,34,12.30
2021,06,08,14,35,12.30
2021,06,08,14,36,12.40
2021,06,08,14,37,12.40
2021,06,08,14,38,12.50
2021,06,08,14,39,12.50
2021,06,08,14,40,12.60
2021,06,08,14,41,12.60
2021,06,08,14,42,12.70
2021,06,08,14,43,12.80
2021,06,08,14,44,12.90
2021,06,08,14,45,12.90
2021,06,08,14,46,13.00
2021,06,08,14,47,13.10
2021,06,08,14,48,13.20
2021,06,08,14,49,13.20
2021,06,08,14,50,13.30
2021,06,08,14,51,13.40
2021,06,08,14,52,13.50
2021,06,08,14,53,13.60
2021,06,08,14,54,13.70
2021,06,08,14,55,13.80
2021,06,08,14,56,13.90
2021,06,08,14,57,14.00
2021,06,08,14,58,14.10
2021,06,08,14,59,14.20
2021,06,08,15,00,14.20
2021,06,08,15,01,14.30
2021,06,08,15,02,14.30
2021,06,08,15,03,14.30
2021,06,08,15,04,14.40
2021,06,08,15,05,14.40
2021,06,08,15,06,14.60
2021,06,08,15,07,14.60
2021,06,08,15,08,14.70
2021,06,08,15,09,14.80
2021,06,08,15,10,14.80
2021,06,08,15,11,15.10
2021,06,08,15,12,15.20
2021,06,08,15,13,15.20
2021,06,08,15,14,15.10
2021,06,08,15,15,15.10
2021,06,08,15,16,15.10
2021,06,08,15,17,15.20
2021,06,08,15,18,15.20
2021,06,08,15,19,15.30
2021,06,08,15,20,15.30
2021,06,08,15,21,15.40
2021,06,08,15,22,15.40
2021,06,08,15,23,15.50
2021,06,08,15,24,15.50
2021,06,08,15,25,15.50
2021,06,08,15,26,15.60
2021,06,08,15,27,15.70
2021,06,08,15,28,15.80
2021,06,08,15,29,15.70
2021,06,08,15,30,15.70
2021,06,08,15,31,15.60
2021,06,08,15,32,15.60
2021,06,08,15,33,15.60
2021,06,08,15,34,15.60
2021,06,08,15,35,15.70
2021,06,08,15,36,15.60
2021,06,08,15,37,15.70
2021,06,08,15,38,15.60
2021,06,08,15,39,15.70
2021,06,08,15,40,15.60
2021,06,08,15,41,15.60
2021,06,08,15,42,15.70
2021,06,08,15,43,15.80
2021,06,08,15,44,15.80
2021,06,08,15,45,15.90
2021,06,08,15,46,15.90
2021,06,08,15,47,16.00
2021,06,08,15,48,16.00
2021,06,08,15,49,15.90
2021,06,08,15,50,15.90
2021,06,08,15,51,15.90
2021,06,08,15,52,15.90
2021,06,08,15,53,15.90
2021,06,08,15,54,15.90
2021,06,08,15,55,15.90
2021,06,08,15,56,16.00
2021,06,08,15,57,16.10
2021,06,08,15,58,16.20
2021,06,08,15,59,16.30
2021,06,08,16,00,16.50
2021,06,08,16,01,16.50
2021,06,08,16,02,16.60
2021,06,08,16,03,16.50
2021,06,08,16,04,16.50
2021,06,08,16,05,16.40
2021,06,08,16,06,16.40
2021,06,08,16,07,16.30
2021,06,08,16,08,16.30
2021,06,08,16,09,16.30
2021,06,08,16,10,16.30
2021,06,08,16,11,16.30
2021,06,08,16,12,16.30
2021,06,08,16,13,16.30
2021,06,08,16,14,16.30
2021,06,08,16,15,16.30
2021,06,08,16,16,16.40
2021,06,08,16,17,16.50
2021,06,08,16,18,16.50
2021,06,08,16,19,16.60
2021,06,08,16,20,16.60
2021,06,08,16,21,16.50
2021,06,08,16,22,16.50
2021,06,08,16,23,16.50
2021,06,08,16,24,16.60
2021,06,08,16,25,16.60
2021,06,08,16,26,16.60
2021,06,08,16,27,16.60
2021,06,08,16,28,16.60
2021,06,08,16,29,16.60
2021,06,08,16,30,16.50
2021,06,08,16,31,16.60
2021,06,08,16,32,16.60
2021,06,08,16,33,16.60
2021,06,08,16,34,16.60
2021,06,08,16,35,16.70
2021,06,08,16,36,16.80
2021,06,08,16,37,16.90
2021,06,08,16,38,16.90
2021,06,08,16,39,17.00
2021,06,08,16,40,17.10
2021,06,08,16,41,17.20
2021,06,08,16,42,17.20
2021,06,08,16,43,17.20
2021,06,08,16,44,17.30
2021,06,08,16,45,17.30
2021,06,08,16,46,17.30
2021,06,08,16,47,17.40
2021,06,08,16,48,17.40
2021,06,08,16,49,17.30
2021,06,08,16,50,17.30
2021,06,08,16,51,17.20
2021,06,08,16,52,17.10
2021,06,08,16,53,17.00
2021,06,08,16,54,16.90
2021,06,08,16,55,16.80
2021,06,08,16,56,16.70
2021,06,08,16,57,16.70
2021,06,08,16,58,16.60
2021,06,08,16,59,16.60
2021,06,08,17,00,16.60
2021,06,08,17,01,16.60
2021,06,08,17,02,16.60
2021,06,08,17,03,16.60
2021,06,08,17,04,16.70
2021,06,08,17,05,16.70
2021,06,08,17,06,16.80
2021,06,08,17,07,16.80
2021,06,08,17,08,16.80
2021,06,08,17,09,16.80
2021,06,08,17,10,16.90
2021,06,08,17,11,16.90
2021,06,08,17,12,16.90
2021,06,08,17,13,16.90
2021,06,08,17,14,16.90
2021,06,08,17,15,16.90
2021,06,08,17,16,16.70
2021,06,08,17,17,16.60
2021,06,08,17,18,16.50
2021,06,08,17,19,16.50
2021,06,08,17,20,16.40
2021,06,08,17,21,16.30
2021,06,08,17,22,16.40
2021,06,08,17,23,16.40
2021,06,08,17,24,16.40
2021,06,08,17,25,16.40
2021,06,08,17,26,16.40
2021,06,08,17,27,16.40
2021,06,08,17,28,16.40
2021,06,08,17,29,16.30
2021,06,08,17,30,16.30
2021,06,08,17,31,16.30
2021,06,08,17,32,16.20
2021,06,08,17,33,16.10
2021,06,08,17,34,16.00
2021,06,08,17,35,16.00
2021,06,08,17,36,15.90
2021,06,08,17,37,15.90
2021,06,08,17,38,15.70
2021,06,08,17,39,15.60
2021,06,08,17,40,15.50